Hourly Data Report for September 21, 2017

All times are specified in Local Standard Time (LST). Add 1 hour to adjust for Daylight Saving Time where and when it is observed.

EUREKA CLIMATE
NUNAVUT

79°59'21.000" N
85°56'02.000" W
10.00 m
2401199
71613
NEK

Download Data

Hourly Data (September 2017)
Hourly Data Report for September 21, 2017
Temp Definition
°C
Dew Point Temp Definition
°C
Rel Hum Definition
%
Wind Dir Definition
10's deg

Wind Spd Definition
km/h
Visibility Definition
km
Stn Press Definition
kPa
Hmdx Definition


Wind Chill Definition


Weather Definition


TIME
00:00 -11.2 -12.6 89 7 5   102.59   -14 LegendNANA
01:00 -12.6 -13.9 90 8 10   102.58   -18 LegendNANA
02:00 -12.9 -14.2 90 6 5   102.58   -16 LegendNANA
03:00 -12.6 -13.8 91 7 5   102.56   -16 LegendNANA
04:00 -14.9 -16.5 88 11 7   102.55   -20 LegendNANA
05:00 -14.9 -15.9 92 3 9   102.52   -21 LegendNANA
06:00 -15.3 -16.7 89 7 6   102.51   -20 LegendNANA
07:00 -14.0 -15.6 87 9 5   102.48   -17 LegendNANA
08:00 -14.6 -17.2 80 12 3   102.42   -17 LegendNANA
09:00 -14.0 -15.7 87 10 7   102.38   -19 LegendNANA
10:00 -14.0 -17.5 75 11 4   102.34   -17 LegendNANA
11:00 -13.3 -16.4 78 9 3   102.29   -15 LegendNANA
12:00 -12.8 -17.1 70 4 4   102.24   -15 LegendNANA
13:00 -14.3 -17.4 77 12 3   102.20   -16 LegendNANA
14:00 -14.2 -17.4 77 18 1   102.18   -15 LegendNANA
15:00 -13.3 -15.3 85 4 8   102.16   -18 LegendNANA
16:00 -12.8 -14.5 87 3 7   102.14   -17 LegendNANA
17:00 -13.0 -14.4 89 9 9   102.12   -18 LegendNANA
18:00 -12.2 -13.7 89 9 6   102.08   -16 LegendNANA
19:00 -12.0 -13.8 86 11 5   102.04   -15 LegendNANA
20:00 -12.4 -13.9 89 11 6   101.99   -16 LegendNANA
21:00 -11.8 -13.2 89 10 4   101.97   -14 LegendNANA
22:00 -12.1 -13.7 87 10 4   101.93   -15 LegendNANA
23:00 -13.2 -14.9 87 3 4   101.88   -16 LegendNANA

Notes on Data Quality.

Legend

  • E = Estimated
  • M = Missing
  • NA = Not Available
  • ‡ = Partner data that is not subject to review by the National Climate Archives
Date modified: